This demonstration page uses our WeatherBlox Daily Observations layout. Learn more.

38.88101, -77.10428

Hourly Observations for February 12, 2018

Temp ( °F °C ) Dew Point ( °F °C ) Humidity (%) Winds ( mph kmh ) Pressure ( in mb ) Visibility ( mi km ) Precip ( " mm )
12:52 am 00:52 Cloudy 62 16.7 60 15.6 93 93 SSW 6 9 29.98 1015 10 16.0934 0 0
1:52 am 01:52 Cloudy 64 17.8 61 16.1 90 90 NW 7 11 30.02 1017 10 16.0934 0 0
2:52 am 02:52 Cloudy 60 15.6 53 11.7 78 78 NNW 13 20 30.06 1018 10 16.0934 0 0.0254
3:52 am 03:52 Cloudy 58 14.4 50 10 75 75 NNW 12 19 30.08 1019 10 16.0934 0 0
4:52 am 04:52 Cloudy 56 13.3 47 8.3 72 72 N 13 20 30.12 1020 10 16.0934 0 0
5:52 am 05:52 Cloudy 52 11.1 43 6.1 72 72 N 21 33 30.17 1022 10 16.0934 0 0
6:52 am 06:52 Cloudy with Rain 47 8.3 41 5 80 80 N 14 22 30.23 1024 4 6.43736 0.03 0.762
7:52 am 07:52 Cloudy 46 7.8 37 2.8 71 71 NNW 18 30 30.29 1026 7 11.26538 0.03 0.762
8:52 am 08:52 Cloudy with Light Rain 44 6.7 35 1.7 71 71 NNW 21 33 30.34 1028 10 16.0934 0.01 0.254
9:52 am 09:52 Cloudy with Light Rain 42 5.6 36 2.2 79 79 NNW 14 22 30.38 1029 9 14.48406 0 0.0254
10:52 am 10:52 Cloudy 42 5.6 34 1.1 73 73 NNW 17 28 30.42 1030 10 16.0934 0.02 0.508
11:52 am 11:52 Cloudy 43 6.1 34 1.1 71 71 NNW 14 22 30.42 1030 10 16.0934 0 0.0254
12:52 pm 12:52 Cloudy 45 7.2 31 -0.6 58 58 N 14 22 30.43 1031 10 16.0934 0 0
1:52 pm 13:52 Mostly Cloudy 47 8.3 30 -1.1 52 52 N 15 24 30.44 1031 10 16.0934 0 0
2:52 pm 14:52 Mostly Cloudy 48 8.9 29 -1.7 48 48 N 12 19 30.45 1031 10 16.0934 0 0
3:52 pm 15:52 Partly Cloudy 49 9.4 26 -3.3 41 41 N 13 20 30.48 1032 10 16.0934 0 0
4:52 pm 16:52 Partly Cloudy 49 9.4 25 -3.9 39 39 N 15 24 30.51 1033 10 16.0934 0 0
5:52 pm 17:52 Partly Cloudy 46 7.8 25 -3.9 44 44 N 12 19 30.55 1034 10 16.0934 0 0
6:52 pm 18:52 Partly Cloudy 44 6.7 24 -4.4 45 45 N 10 17 30.58 1036 10 16.0934 0 0
7:52 pm 19:52 Partly Cloudy 43 6.1 22 -5.6 43 43 N 12 19 30.62 1037 10 16.0934 0 0
8:52 pm 20:52 Partly Cloudy 40 4.4 22 -5.6 49 49 N 8 13 30.63 1037 10 16.0934 0 0
9:52 pm 21:52 Partly Cloudy 40 4.4 21 -6.1 47 47 NNW 10 17 30.66 1038 10 16.0934 0 0
10:52 pm 22:52 Mostly Cloudy 39 3.9 21 -6.1 48 48 NNW 8 13 30.68 1039 10 16.0934 0 0
11:52 pm 23:52 Mostly Cloudy 37 2.8 21 -6.1 52 52 NNW 8 13 30.7 1040 10 16.0934 0 0

Powered by AerisWeather